| time (UTC) | temp F | wind direction | speed MPH | gust MPH | rain 1hr in | rain 24hr in | rain mn in | humidity % | barometer mb |
| 20260901200041 | 82 | 211 | 2.0 | 10.0 | 0.00 | 0.02 | 0.00 | 80 | 1013.5 |
| 20260901194536 | 81 | 234 | 2.0 | 7.0 | 0.00 | 0.06 | 0.00 | 82 | 1013.3 |
| 20260901193032 | 81 | 192 | 2.0 | 8.0 | 0.00 | 0.06 | 0.00 | 79 | 1013.2 |
| 20260901191539 | 82 | 157 | 4.0 | 9.0 | 0.00 | 0.06 | 0.00 | 77 | 1013.2 |
| 20260901190039 | 83 | 252 | 2.0 | 7.0 | 0.00 | 0.06 | 0.00 | 77 | 1013.4 |
| 20260901184534 | 83 | 224 | 2.0 | 8.0 | 0.00 | 0.08 | 0.00 | 75 | 1013.5 |
| 20260901183033 | 83 | 192 | 2.0 | 6.0 | 0.00 | 0.08 | 0.00 | 75 | 1013.6 |
| 20260901181531 | 83 | 191 | 2.0 | 9.0 | 0.00 | 0.08 | 0.00 | 75 | 1013.6 |
| 20260901180026 | 84 | 167 | 2.0 | 7.0 | 0.00 | 0.08 | 0.00 | 77 | 1013.4 |
| 20260901174535 | 83 | 221 | 1.0 | 8.0 | 0.00 | 0.12 | 0.00 | 78 | 1013.4 |
| 20260901173028 | 83 | 235 | 0.0 | 9.0 | 0.00 | 0.12 | 0.00 | 77 | 1013.2 |
| 20260901171520 | 83 | 196 | 2.0 | 7.0 | 0.00 | 0.12 | 0.00 | 79 | 1013.0 |
| 20260901170018 | 83 | 243 | 2.0 | 8.0 | 0.00 | 0.12 | 0.00 | 80 | 1012.9 |
| 20260901164519 | 83 | 217 | 2.0 | 6.0 | 0.00 | 0.12 | 0.00 | 79 | 1013.0 |
| 20260901163015 | 82 | 241 | 2.0 | 6.0 | 0.00 | 0.12 | 0.00 | 80 | 1013.0 |
| 20260901161518 | 82 | 178 | 2.0 | 10.0 | 0.00 | 0.12 | 0.00 | 81 | 1013.0 |
| 20260901160014 | 82 | 204 | 3.0 | 9.0 | 0.00 | 0.12 | 0.00 | 82 | 1013.1 |
| 20260901154505 | 81 | 209 | 3.0 | 7.0 | 0.00 | 0.13 | 0.00 | 84 | 1013.0 |
| 20260901153001 | 80 | 218 | 3.0 | 5.0 | 0.00 | 0.13 | 0.00 | 85 | 1012.9 |
| 20260901151607 | 80 | 243 | 1.0 | 5.0 | 0.00 | 0.13 | 0.00 | 84 | 1012.9 |
| 20260901150056 | 79 | 212 | 3.0 | 8.0 | 0.00 | 0.13 | 0.00 | 85 | 1012.9 |
| 20260901144555 | 79 | 228 | 3.0 | 7.0 | 0.00 | 0.19 | 0.00 | 85 | 1012.8 |
| 20260901143107 | 79 | 213 | 0.0 | 6.0 | 0.00 | 0.19 | 0.00 | 87 | 1012.7 |
| 20260901141548 | 78 | 194 | 1.0 | 4.0 | 0.00 | 0.19 | 0.00 | 88 | 1012.9 |
| 20260901140048 | 78 | 133 | 0.0 | 3.0 | 0.00 | 0.19 | 0.00 | 90 | 1012.9 |
| 20260901134543 | 77 | 204 | 1.0 | 7.0 | 0.00 | 0.21 | 0.00 | 90 | 1013.0 |
| 20260901133042 | 77 | 239 | 2.0 | 5.0 | 0.00 | 0.21 | 0.00 | 89 | 1013.1 |
| 20260901131539 | 76 | 246 | 1.0 | 4.0 | 0.00 | 0.21 | 0.00 | 91 | 1013.0 |
| 20260901130036 | 76 | 259 | 1.0 | 5.0 | 0.00 | 0.21 | 0.00 | 93 | 1013.1 |
| 20260901124534 | 75 | 273 | 1.0 | 5.0 | 0.00 | 0.21 | 0.00 | 93 | 1013.2 |
| 20260901123034 | 74 | 190 | 1.0 | 4.0 | 0.00 | 0.21 | 0.00 | 94 | 1013.2 |
| 20260901121538 | 74 | 218 | 0.0 | 3.0 | 0.00 | 0.21 | 0.00 | 94 | 1013.0 |
| 20260901120023 | 73 | 197 | 1.0 | 4.0 | 0.00 | 0.21 | 0.00 | 94 | 1012.8 |
| 20260901114521 | 73 | 248 | 0.0 | 3.0 | 0.00 | 0.21 | 0.00 | 94 | 1012.8 |
| 20260901113020 | 73 | 217 | 1.0 | 4.0 | 0.00 | 0.21 | 0.00 | 94 | 1012.8 |
| 20260901111513 | 73 | 273 | 0.0 | 4.0 | 0.00 | 0.21 | 0.00 | 94 | 1012.6 |
| 20260901110008 | 73 | 211 | 0.0 | 4.0 | 0.00 | 0.21 | 0.00 | 94 | 1012.5 |
| 20260901104505 | 73 | 214 | 3.0 | 7.0 | 0.00 | 0.22 | 0.00 | 95 | 1012.4 |
| 20260901103001 | 72 | 194 | 1.0 | 6.0 | 0.00 | 0.22 | 0.00 | 95 | 1012.4 |
| 20260901101558 | 71 | 248 | 1.0 | 6.0 | 0.00 | 0.22 | 0.00 | 96 | 1012.3 |
| 20260901100105 | 71 | 221 | 1.0 | 4.0 | 0.00 | 0.22 | 0.00 | 96 | 1012.1 |
| 20260901094559 | 71 | 247 | 3.0 | 6.0 | 0.00 | 0.22 | 0.00 | 97 | 1012.0 |
| 20260901093105 | 71 | 253 | 1.0 | 4.0 | 0.00 | 0.22 | 0.00 | 97 | 1012.1 |
| 20260901091604 | 71 | 204 | 0.0 | 3.0 | 0.00 | 0.22 | 0.00 | 97 | 1012.0 |
| 20260901090053 | 71 | 204 | 0.0 | 4.0 | 0.00 | 0.22 | 0.00 | 97 | 1011.8 |
| 20260901084555 | 71 | 178 | 0.0 | 1.0 | 0.00 | 0.22 | 0.00 | 97 | 1011.9 |
| 20260901083057 | 71 | 178 | 0.0 | 3.0 | 0.00 | 0.22 | 0.00 | 97 | 1011.8 |
| 20260901081551 | 71 | 180 | 0.0 | 3.0 | 0.00 | 0.22 | 0.00 | 97 | 1011.9 |
| 20260901080049 | 70 | 213 | 0.0 | 4.0 | 0.00 | 0.22 | 0.00 | 97 | 1012.1 |
| 20260901074549 | 70 | 213 | 0.0 | 3.0 | 0.00 | 0.25 | 0.00 | 98 | 1012.1 |
| 20260901073049 | 70 | 178 | 0.0 | 2.0 | 0.00 | 0.25 | 0.00 | 98 | 1012.3 |
| 20260901071545 | 70 | 200 | 1.0 | 5.0 | 0.00 | 0.25 | 0.00 | 98 | 1012.5 |
| 20260901070050 | 70 | 171 | 1.0 | 4.0 | 0.00 | 0.25 | 0.00 | 98 | 1012.6 |
| 20260901064545 | 70 | 148 | 0.0 | 3.0 | 0.00 | 0.28 | 0.00 | 98 | 1012.7 |
| 20260901063040 | 70 | 138 | 0.0 | 4.0 | 0.00 | 0.28 | 0.00 | 98 | 1013.0 |
| 20260901061539 | 70 | 173 | 0.0 | 4.0 | 0.00 | 0.28 | 0.00 | 98 | 1013.0 |
| 20260901060035 | 70 | 212 | 0.0 | 3.0 | 0.00 | 0.28 | 0.00 | 98 | 1013.5 |
| 20260901054534 | 70 | 212 | 0.0 | 3.0 | 0.00 | 0.31 | 0.00 | 98 | 1013.6 |
| 20260901053033 | 70 | 207 | 0.0 | 3.0 | 0.00 | 0.31 | 0.00 | 98 | 1013.8 |
| 20260901051531 | 70 | 207 | 0.0 | 2.0 | 0.00 | 0.31 | 0.00 | 97 | 1013.8 |
| 20260901050029 | 69 | 207 | 0.0 | 3.0 | 0.00 | 0.31 | 0.00 | 97 | 1013.8 |
| 20260901044528 | 69 | 207 | 0.0 | 1.0 | 0.00 | 0.31 | 0.00 | 97 | 1014.0 |
| 20260901043026 | 69 | 207 | 0.0 | 0.0 | 0.00 | 0.31 | 0.00 | 97 | 1014.1 |
| 20260901041526 | 69 | 207 | 0.0 | 1.0 | 0.02 | 0.31 | 0.00 | 97 | 1014.3 |
| 20260901040031 | 69 | 207 | 0.0 | 1.0 | 0.02 | 0.31 | 0.00 | 97 | 1014.5 |
| 20260901034522 | 70 | 207 | 0.0 | 2.0 | 0.02 | 0.37 | 0.31 | 97 | 1014.6 |
| 20260901033022 | 70 | 207 | 0.0 | 1.0 | 0.01 | 0.36 | 0.30 | 97 | 1014.6 |
| 20260901031521 | 70 | 207 | 0.0 | 1.0 | 0.00 | 0.35 | 0.28 | 96 | 1014.6 |
| 20260901030019 | 70 | 207 | 0.0 | 1.0 | 0.00 | 0.35 | 0.28 | 96 | 1014.7 |
| 20260901024526 | 70 | 207 | 0.0 | 1.0 | 0.00 | 0.45 | 0.28 | 96 | 1014.9 |
| 20260901023019 | 70 | 207 | 0.0 | 1.0 | 0.00 | 0.45 | 0.28 | 96 | 1014.9 |
| 20260901021517 | 70 | 207 | 0.0 | 1.0 | 0.00 | 0.45 | 0.28 | 96 | 1015.3 |
| 20260901020015 | 70 | 207 | 0.0 | 1.0 | 0.00 | 0.45 | 0.28 | 96 | 1015.1 |
| 20260901014515 | 70 | 207 | 0.0 | 0.0 | 0.00 | 0.54 | 0.28 | 95 | 1015.2 |
| 20260901013018 | 70 | 207 | 0.0 | 0.0 | 0.00 | 0.54 | 0.28 | 96 | 1015.3 |
| 20260901011514 | 71 | 207 | 0.0 | 1.0 | 0.00 | 0.54 | 0.28 | 95 | 1015.3 |
| 20260901010014 | 71 | 207 | 0.0 | 2.0 | 0.00 | 0.54 | 0.28 | 95 | 1015.4 |
| 20260901004529 | 71 | 207 | 0.0 | 1.0 | 0.00 | 0.56 | 0.28 | 95 | 1015.3 |
| 20260901003016 | 71 | 207 | 0.0 | 3.0 | 0.00 | 0.56 | 0.28 | 95 | 1015.2 |
| 20260901001611 | 71 | 207 | 0.0 | 3.0 | 0.00 | 0.56 | 0.28 | 95 | 1015.1 |
| 20260901000015 | 72 | 207 | 0.0 | 3.0 | 0.00 | 0.56 | 0.28 | 95 | 1015.2 |
| 20260831234512 | 72 | 214 | 1.0 | 4.0 | 0.00 | 0.57 | 0.28 | 95 | 1015.0 |
| 20260831233010 | 72 | 236 | 1.0 | 4.0 | 0.00 | 0.57 | 0.28 | 95 | 1015.1 |
| 20260831231509 | 72 | 219 | 1.0 | 4.0 | 0.00 | 0.57 | 0.28 | 95 | 1015.1 |
| 20260831230010 | 72 | 216 | 2.0 | 8.0 | 0.00 | 0.57 | 0.28 | 95 | 1015.2 |
| 20260831224508 | 73 | 229 | 1.0 | 3.0 | 0.00 | 0.61 | 0.28 | 95 | 1015.3 |
| 20260831223008 | 73 | 218 | 0.0 | 5.0 | 0.00 | 0.61 | 0.28 | 95 | 1015.2 |
| 20260831221511 | 73 | 217 | 1.0 | 3.0 | 0.00 | 0.61 | 0.28 | 95 | 1015.3 |
| 20260831220005 | 73 | 223 | 0.0 | 3.0 | 0.00 | 0.61 | 0.28 | 95 | 1015.3 |
| 20260831214516 | 73 | 203 | 1.0 | 5.0 | 0.00 | 0.62 | 0.28 | 95 | 1015.6 |
| 20260831213005 | 73 | 267 | 1.0 | 11.0 | 0.00 | 0.62 | 0.28 | 95 | 1015.5 |
| 20260831211505 | 73 | 197 | 2.0 | 10.0 | 0.00 | 0.62 | 0.28 | 95 | 1015.5 |
| 20260831210002 | 73 | 252 | 2.0 | 7.0 | 0.00 | 0.62 | 0.28 | 95 | 1015.5 |
| 20260831204502 | 73 | 215 | 0.0 | 6.0 | 0.00 | 0.62 | 0.28 | 96 | 1015.3 |
| 20260831203001 | 73 | 236 | 1.0 | 6.0 | 0.00 | 0.62 | 0.28 | 96 | 1015.2 |
| 20260831201503 | 73 | 223 | 1.0 | 7.0 | 0.01 | 0.62 | 0.28 | 96 | 1015.2 |